• In Russia
  • List of Countries
  • For 7 days
  • Water Temperature
  • Satellite Maps
  • Weather Map
  • Weather Widgets
  • user-avatar
    Login

    Hourly Weather Solden

    Today, 16 January, Tuesday

    Time Temperature Precipitation Wind Pressure Humidity
    00:00 -12°C° 0.1 mm 2 mps 573 mmHg 92%
    01:00 -14°C° 0 mm 3 mps 573 mmHg 91%
    02:00 -14°C° 0.1 mm 3 mps 573 mmHg 91%
    03:00 -14°C° 0.1 mm 3 mps 572 mmHg 91%
    04:00 -13°C° 0.1 mm 2 mps 571 mmHg 91%
    05:00 -13°C° 0.1 mm 2 mps 571 mmHg 91%
    06:00 -12°C° 0.1 mm 2 mps 571 mmHg 91%
    07:00 -12°C° 0 mm 2 mps 571 mmHg 89%
    08:00 -10°C° 0.2 mm 2 mps 571 mmHg 89%
    09:00 -9°C° 0.2 mm 2 mps 571 mmHg 89%
    10:00 -8°C° 0.2 mm 2 mps 572 mmHg 89%
    11:00 -7°C° 0.2 mm 2 mps 572 mmHg 89%
    12:00 -7°C° 0.2 mm 3 mps 572 mmHg 88%
    13:00 -6°C° 0.2 mm 3 mps 572 mmHg 87%
    14:00 -5°C° 0.2 mm 2 mps 571 mmHg 88%
    15:00 -6°C° 0.2 mm 2 mps 571 mmHg 89%
    16:00 -6°C° 0.2 mm 2 mps 570 mmHg 90%
    17:00 -6°C° 0.2 mm 2 mps 570 mmHg 90%
    18:00 -7°C° 0.2 mm 2 mps 570 mmHg 90%
    19:00 -8°C° 0.2 mm 2 mps 569 mmHg 91%
    20:00 -8°C° 0.4 mm 2 mps 569 mmHg 91%
    21:00 -8°C° 0.4 mm 2 mps 569 mmHg 91%
    22:00 -8°C° 0.4 mm 2 mps 569 mmHg 91%
    23:00 -8°C° 0.4 mm 2 mps 568 mmHg 91%

    Tomorrow, 17 January, Wednesday

    Time Temperature Precipitation Wind Pressure Humidity
    00:00 -8°C° 0.4 mm 2 mps 568 mmHg 92%
    01:00 -8°C° 0.4 mm 2 mps 568 mmHg 92%
    02:00 -8°C° 0.7 mm 2 mps 567 mmHg 92%
    03:00 -8°C° 0.7 mm 2 mps 567 mmHg 93%
    04:00 -8°C° 0.7 mm 2 mps 566 mmHg 94%
    05:00 -9°C° 0.7 mm 2 mps 566 mmHg 93%
    06:00 -9°C° 0.7 mm 2 mps 566 mmHg 92%
    07:00 -10°C° 0.7 mm 2 mps 566 mmHg 92%
    08:00 -12°C° 0.5 mm 3 mps 566 mmHg 90%
    09:00 -12°C° 0.5 mm 3 mps 567 mmHg 87%
    10:00 -12°C° 0.5 mm 4 mps 567 mmHg 85%
    11:00 -14°C° 0.6 mm 4 mps 568 mmHg 84%
    12:00 -14°C° 0.6 mm 5 mps 568 mmHg 84%
    13:00 -15°C° 0.6 mm 5 mps 569 mmHg 83%
    14:00 -15°C° 0.4 mm 5 mps 569 mmHg 83%
    15:00 -17°C° 0.4 mm 5 mps 569 mmHg 84%
    16:00 -16°C° 0.4 mm 4 mps 570 mmHg 85%
    17:00 -16°C° 0.3 mm 4 mps 570 mmHg 86%
    18:00 -17°C° 0.3 mm 4 mps 571 mmHg 88%
    19:00 -16°C° 0.3 mm 3 mps 571 mmHg 89%
    20:00 -16°C° 0.4 mm 3 mps 571 mmHg 89%
    21:00 -16°C° 0.4 mm 3 mps 572 mmHg 89%
    22:00 -15°C° 0.4 mm 3 mps 573 mmHg 89%
    23:00 -15°C° 0.3 mm 3 mps 573 mmHg 89%

    Day after tomorrow, 18 January, Thursday

    Time Temperature Precipitation Wind Pressure Humidity
    00:00 -15°C° 0.3 mm 3 mps 573 mmHg 89%
    01:00 -15°C° 0.3 mm 2 mps 574 mmHg 88%
    02:00 -15°C° 0.2 mm 2 mps 573 mmHg 88%
    03:00 -15°C° 0.2 mm 2 mps 573 mmHg 87%
    04:00 -15°C° 0.2 mm 2 mps 573 mmHg 87%
    05:00 -15°C° 0.1 mm 2 mps 573 mmHg 86%
    06:00 -15°C° 0.1 mm 2 mps 573 mmHg 84%
    07:00 -15°C° 0.1 mm 2 mps 573 mmHg 83%
    08:00 -13°C° 0.1 mm 2 mps 573 mmHg 83%
    09:00 -12°C° 0.1 mm 2 mps 574 mmHg 83%
    10:00 -9°C° 0.1 mm 2 mps 575 mmHg 82%
    11:00 -7°C° 0.1 mm 2 mps 575 mmHg 83%
    12:00 -6°C° 0.1 mm 2 mps 575 mmHg 83%
    13:00 -5°C° 0.1 mm 2 mps 575 mmHg 84%
    14:00 -5°C° 0.1 mm 2 mps 575 mmHg 85%
    15:00 -5°C° 0.1 mm 2 mps 574 mmHg 86%
    16:00 -5°C° 0.1 mm 2 mps 574 mmHg 88%
    17:00 -6°C° 0.1 mm 2 mps 573 mmHg 87%
    18:00 -7°C° 0.1 mm 2 mps 573 mmHg 86%
    19:00 -7°C° 0.1 mm 2 mps 572 mmHg 85%
    20:00 -8°C° 0.2 mm 2 mps 572 mmHg 85%
    21:00 -8°C° 0.2 mm 2 mps 572 mmHg 85%
    22:00 -8°C° 0.2 mm 2 mps 572 mmHg 86%
    23:00 -7°C° 0.3 mm 2 mps 572 mmHg 86%

    19 January, Friday

    Time Temperature Precipitation Wind Pressure Humidity
    00:00 -7°C° 0.3 mm 2 mps 572 mmHg 87%
    01:00 -6°C° 0.3 mm 2 mps 572 mmHg 88%
    02:00 -7°C° 0.4 mm 2 mps 572 mmHg 88%
    03:00 -7°C° 0.4 mm 2 mps 571 mmHg 89%
    04:00 -7°C° 0.4 mm 2 mps 571 mmHg 90%
    05:00 -6°C° 0.3 mm 1 mps 571 mmHg 90%
    06:00 -6°C° 0.3 mm 1 mps 571 mmHg 90%
    07:00 -6°C° 0.3 mm 1 mps 571 mmHg 90%
    08:00 -4°C° 0.4 mm 1 mps 571 mmHg 91%
    09:00 -6°C° 0.4 mm 2 mps 572 mmHg 92%
    10:00 -6°C° 0.4 mm 2 mps 572 mmHg 93%
    11:00 -5°C° 0.4 mm 2 mps 572 mmHg 93%
    12:00 -5°C° 0.4 mm 2 mps 572 mmHg 92%
    13:00 -5°C° 0.4 mm 2 mps 572 mmHg 92%
    14:00 -6°C° 0.5 mm 2 mps 571 mmHg 93%
    15:00 -6°C° 0.5 mm 2 mps 571 mmHg 93%
    16:00 -7°C° 0.5 mm 2 mps 571 mmHg 93%
    17:00 -8°C° 0.6 mm 2 mps 570 mmHg 93%
    18:00 -9°C° 0.6 mm 2 mps 570 mmHg 94%
    19:00 -10°C° 0.6 mm 2 mps 570 mmHg 94%
    20:00 -12°C° 0.3 mm 2 mps 569 mmHg 93%
    21:00 -12°C° 0.3 mm 2 mps 569 mmHg 92%
    22:00 -13°C° 0.3 mm 2 mps 569 mmHg 92%
    23:00 -13°C° 0.2 mm 2 mps 569 mmHg 91%

    20 January, Saturday

    Time Temperature Precipitation Wind Pressure Humidity
    00:00 -14°C° 0.2 mm 2 mps 568 mmHg 90%
    01:00 -15°C° 0.2 mm 2 mps 568 mmHg 90%
    02:00 -15°C° 0.1 mm 2 mps 568 mmHg 88%
    03:00 -16°C° 0.1 mm 2 mps 567 mmHg 87%
    04:00 -16°C° 0.1 mm 2 mps 567 mmHg 86%
    05:00 -16°C° 0 mm 2 mps 567 mmHg 85%
    06:00 -16°C° 0 mm 2 mps 567 mmHg 85%
    07:00 -17°C° 0 mm 2 mps 567 mmHg 84%
    08:00 -16°C° 0 mm 2 mps 567 mmHg 84%
    09:00 -15°C° 0 mm 2 mps 568 mmHg 85%
    10:00 -14°C° 0 mm 2 mps 568 mmHg 85%
    11:00 -14°C° 0.1 mm 2 mps 569 mmHg 83%
    12:00 -13°C° 0.1 mm 2 mps 569 mmHg 81%
    13:00 -13°C° 0.1 mm 3 mps 569 mmHg 79%
    14:00 -14°C° 0.1 mm 3 mps 569 mmHg 81%
    15:00 -14°C° 0.1 mm 3 mps 569 mmHg 83%
    16:00 -15°C° 0.1 mm 3 mps 569 mmHg 86%
    17:00 -15°C° 0.1 mm 3 mps 570 mmHg 87%
    18:00 -16°C° 0.1 mm 3 mps 570 mmHg 88%
    19:00 -17°C° 0.1 mm 3 mps 570 mmHg 89%
    20:00 -18°C° 0.1 mm 3 mps 570 mmHg 89%
    21:00 -18°C° 0.1 mm 2 mps 570 mmHg 89%
    22:00 -18°C° 0.1 mm 2 mps 570 mmHg 89%
    23:00 -19°C° 0 mm 2 mps 570 mmHg 88%

    21 January, Sunday

    Time Temperature Precipitation Wind Pressure Humidity
    00:00 -20°C° 0 mm 2 mps 570 mmHg 88%
    01:00 -21°C° 0 mm 2 mps 569 mmHg 88%
    02:00 -23°C° 0 mm 2 mps 569 mmHg 87%
    03:00 -23°C° 0 mm 2 mps 569 mmHg 86%
    04:00 -24°C° 0 mm 2 mps 569 mmHg 86%
    05:00 -24°C° 0 mm 2 mps 569 mmHg 84%
    06:00 -24°C° 0 mm 2 mps 569 mmHg 83%
    07:00 -24°C° 0 mm 2 mps 570 mmHg 81%
    08:00 -21°C° 0 mm 2 mps 571 mmHg 80%
    09:00 -20°C° 0 mm 2 mps 572 mmHg 80%
    10:00 -18°C° 0 mm 2 mps 573 mmHg 79%
    11:00 -16°C° 0 mm 2 mps 574 mmHg 77%
    12:00 -15°C° 0 mm 2 mps 574 mmHg 74%
    13:00 -15°C° 0 mm 3 mps 575 mmHg 71%
    14:00 -14°C° 0 mm 2 mps 575 mmHg 75%
    15:00 -15°C° 0 mm 2 mps 575 mmHg 79%
    16:00 -15°C° 0 mm 2 mps 574 mmHg 82%
    17:00 -17°C° 0 mm 2 mps 574 mmHg 84%
    18:00 -19°C° 0 mm 2 mps 574 mmHg 85%
    19:00 -20°C° 0 mm 2 mps 573 mmHg 87%
    20:00 -21°C° 0 mm 2 mps 573 mmHg 86%
    21:00 -23°C° 0 mm 2 mps 573 mmHg 86%
    22:00 -23°C° 0 mm 2 mps 573 mmHg 86%
    23:00 -23°C° 0 mm 2 mps 573 mmHg 85%
    Show more